Regional Weather Roundup
Issued by NWS

Home | Current Version | Previous Version | Graphics & Text | Print | Product List | Glossary On
Versions: 1 2 3 4 5 6 7 8 9 10 11 12 13 14 15 16 17 18 19 20 21 22 23 24 25 26 27 28 29 30 31 32 33 34 35 36 37 38 39 40 41 42 43 44 45 46 47 48 49 50
000
ASUS45 KABQ 272201
RWRNM
NEW MEXICO REGIONAL WEATHER ROUNDUP
NATIONAL WEATHER SERVICE ALBUQUERQUE NM
400 PM MDT TUE JUN 27 2017

NOTE: "FAIR" MEANS FEW OR NO CLOUDS BELOW 12,000 FEET AGL WITH NO
       SIGNIFICANT WEATHER OR OBSTRUCTIONS TO VISION.

      THIS PRODUCT IS RELEASED AS TWO VERSIONS.  ONE VERSION NEAR
      THE TOP OF THE HOUR CONTAINING PRELIMINARY DATA FROM ALBUQUERQUE
      AND OTHER STATIONS.  A FINAL VERSION WITH ADDITIONAL DATA IS
      ISSUED ABOUT 10 MINUTES AFTER THE HOUR.

NMZ501-503-504-510>518-272300-
NORTHWEST PLATEAU/NORTHCENTRAL MOUNTAINS

CITY           SKY/WX    TMP DP  RH WIND       PRES   REMARKS
FARMINGTON     FAIR      95  23   7 W15G30    29.96F
LOS ALAMOS     FAIR      85  31  14 SW22G31   30.15F
SANTA FE       FAIR      92  35  13 W20G28    30.07F
TAOS           FAIR      86  34  15 W17G31    30.12F
ANGEL FIRE     FAIR      72  38  28 W16G22    30.23F

$$
NMZ402-403-502-505>509-272300-
WESTCENTRAL MOUNTAINS/SOUTHWEST MOUNTAINS

CITY           SKY/WX    TMP DP  RH WIND       PRES   REMARKS
GALLUP         FAIR      92  27   9 W24G33    30.09F
GRANTS         FAIR      90  23   9 W16G29    30.12F
SILVER CITY    FAIR      92  41  16 NW14G21   30.09F

$$
NMZ407-409-411-412-272300-
SOUTHERN DESERTS

CITY           SKY/WX    TMP DP  RH WIND       PRES   REMARKS
DEMING         FAIR      97  43  15 NW8       30.00F
LAS CRUCES     FAIR      94  46  19 S9        30.03F
HOLLOMAN AFB   FAIR      97  49  19 SW6       29.99F
ALAMOGORDO     FAIR      93  46  20 W9        30.00F
T OR C         TSTM      76  55  48 SW9       30.06R

$$
NMZ519>523-272300-
CENTRAL VALLEYS/CENTRAL HIGHLANDS

CITY           SKY/WX    TMP DP  RH WIND       PRES   REMARKS
ALBUQUERQUE    PTSUNNY   90  41  18 S12G20    30.01F
DOUBLE EAGLE   MOSUNNY   90  37  15 W5G16     30.04F
CLINES CORNERS FAIR      88  33  14 W20G26    30.14F
BELEN          FAIR      95  37  13 S16G23    30.00F
SOCORRO        TSTM      71  51  48 S14G22    30.06R

$$
NMZ524>526-539-540-272300-
SOUTHCENTRAL MOUNTAINS

CITY           SKY/WX    TMP DP  RH WIND       PRES   REMARKS
RUIDOSO        FAIR      81  41  24 N8        30.21F

$$
NMZ527>531-272300-
NORTHEAST HIGHLANDS/NORTHEAST PLAINS

CITY           SKY/WX    TMP DP  RH WIND       PRES   REMARKS
LAS VEGAS      LGT RAIN  86  27  11 W26G35    30.08F
RATON          FAIR      84  41  21 S16       30.00F
CLAYTON        FAIR      88  48  25 S26G37    29.94F

$$
NMZ532>537-272300-
EASTCENTRAL PLAINS

CITY           SKY/WX    TMP DP  RH WIND       PRES   REMARKS
SANTA ROSA     FAIR      96  37  12 SW10G18   29.93F
TUCUMCARI      FAIR      97  49  19 S16G29    29.90F
CANNON AFB     FAIR      92  47  21 SW18      30.00F
CLOVIS AIRPORT NOT AVBL

$$
NMZ028-029-538-272300-
SOUTHEAST PLAINS

CITY           SKY/WX    TMP DP  RH WIND       PRES   REMARKS
ROSWELL        FAIR      95  46  18 S14G28    29.96F
ARTESIA        FAIR      93  52  24 S17G26    29.96F
CARLSBAD       FAIR      93  52  24 SE12      29.95F
HOBBS          MOSUNNY   90  48  24 SE13      30.02F


$$




USA.gov is the U.S. government's official web portal to all federal, state and local government web resources and services.